Weather home | Your neighborhood | Marine | Radar | Hurricane | Almanac

Daily weather history


Statistical History for Monday, July 17, 2017

St. Petersburg Airport, FL


  Actual Average Record
Temperature
Mean Temperature -  
Max Temperature 90 °F 96 °F (2016)
Min Temperature 77 °F 70 °F (1955)
Cooling Degree Days    
Growing Degree Days 32 (Base - )  
Moisture
Dew Point   
Average Humidity    
Maximum Humidity    
Minimum Humidity    
Precipitation
Precipitation - - ()
Wind
Wind Speed   
Max Wind Speed   
Max Gust Speed   
Visibility   
Events   
Averages and records for this station are not official NWS values.
Key: T is trace of precipitation, MM is missing value
Source: NWS Daily Summary
Seasonal Weather Averages
Time(EDT)TemperatureDew PointHumidity Sea Level Pressure Visibility Wind DirectionWind SpeedGust SpeedPrecipitationEventsConditions
12:53 AM 78.1 °F 73.0 °F 84% 29.98 in 10.0 miles Calm Calm - N/A   Clear
1:53 AM 77.0 °F 73.9 °F 90% 29.97 in 10.0 miles Calm Calm - N/A   Clear
2:53 AM 78.1 °F 75.0 °F 90% 29.96 in 10.0 miles Calm Calm - N/A   Clear
3:53 AM 78.1 °F 75.0 °F 90% 29.95 in 10.0 miles Calm Calm - N/A   Clear
4:53 AM 78.1 °F 73.9 °F 87% 29.94 in 10.0 miles Calm Calm - N/A   Clear
5:53 AM 78.1 °F 75.0 °F 90% 29.96 in 10.0 miles Calm Calm - N/A   Clear
6:53 AM 80.1 °F 75.0 °F 85% 29.97 in 10.0 miles Calm Calm - N/A   Clear
7:53 AM 82.0 °F 75.9 °F 82% 30.00 in 10.0 miles Calm Calm - N/A   Clear
8:53 AM 84.0 °F 75.9 °F 76% 30.01 in 10.0 miles Variable 3.5 mph - N/A   Clear
9:53 AM 87.1 °F 75.9 °F 69% 30.01 in 10.0 miles Variable 5.8 mph - N/A   Scattered Clouds
10:53 AM 88.0 °F 75.0 °F 65% 30.01 in 10.0 miles SSE 5.8 mph - N/A   Scattered Clouds
11:53 AM 90.0 °F 75.0 °F 61% 30.01 in 10.0 miles ENE 8.1 mph - N/A   Scattered Clouds
12:53 PM 90.0 °F 73.0 °F 57% 30.01 in 10.0 miles NE 10.4 mph - N/A Thunderstorm Mostly Cloudy
1:01 PM 90.0 °F 73.9 °F 59% 30.02 in 10.0 miles NNW 11.5 mph - N/A Thunderstorm Thunderstorm
1:12 PM 80.1 °F 70.0 °F 71% 30.03 in 1.5 miles WNW 28.8 mph 33.4 mph 0.08 in Rain , Thunderstorm Thunderstorms and Rain
1:17 PM 79.0 °F 69.1 °F 72% 30.04 in 0.8 miles West 24.2 mph 33.4 mph 0.14 in Rain , Thunderstorm Heavy Thunderstorms and Rain
1:23 PM 77.0 °F 68.0 °F 74% 30.06 in 0.2 miles SW 24.2 mph 33.4 mph 0.37 in Rain , Thunderstorm Heavy Thunderstorms and Rain
1:44 PM 75.9 °F 69.1 °F 79% 30.03 in 1.0 miles South 12.7 mph 26.5 mph 0.75 in Rain , Thunderstorm Heavy Thunderstorms and Rain
1:53 PM 75.0 °F 70.0 °F 84% 30.01 in 3.0 miles South 8.1 mph - 0.85 in Rain , Thunderstorm Heavy Thunderstorms and Rain
2:00 PM 75.9 °F 70.0 °F 82% 30.00 in 8.0 miles South 5.8 mph - 0.03 in Rain , Thunderstorm Heavy Thunderstorms and Rain
2:03 PM 75.9 °F 70.0 °F 82% 30.00 in 8.0 miles South 4.6 mph - 0.03 in   Overcast
2:53 PM 82.9 °F 69.1 °F 63% 29.98 in 10.0 miles West 5.8 mph - 0.04 in   Scattered Clouds
3:53 PM 86.0 °F 75.0 °F 70% 29.99 in 10.0 miles West 5.8 mph - N/A   Partly Cloudy
4:53 PM 88.0 °F 75.9 °F 67% 29.98 in 10.0 miles WNW 5.8 mph - N/A   Scattered Clouds
5:46 PM 86.0 °F 75.9 °F 72% 29.98 in 10.0 miles East 5.8 mph - N/A   Mostly Cloudy
5:53 PM 84.9 °F 75.0 °F 72% 29.98 in 10.0 miles ESE 6.9 mph - N/A   Overcast
6:22 PM 84.9 °F 75.0 °F 72% 29.99 in 10.0 miles NE 8.1 mph - N/A   Scattered Clouds
6:53 PM 84.0 °F 75.0 °F 74% 30.01 in 10.0 miles ENE 6.9 mph - N/A   Mostly Cloudy
7:09 PM 84.0 °F 75.0 °F 74% 30.02 in 10.0 miles ENE 6.9 mph - N/A   Overcast
7:35 PM 84.0 °F 73.9 °F 72% 30.03 in 10.0 miles ENE 6.9 mph - N/A   Overcast
7:51 PM 82.4 °F 73.4 °F 74% 30.03 in 8.0 miles East 4.6 mph - 0.04 in Rain , Thunderstorm Heavy Thunderstorms and Rain
7:53 PM 82.9 °F 73.9 °F 74% 30.03 in 8.0 miles East 3.5 mph - 0.04 in Rain , Thunderstorm Thunderstorms and Rain
8:24 PM 81.0 °F 73.9 °F 79% 30.03 in 10.0 miles East 4.6 mph - 0.01 in Thunderstorm Scattered Clouds
8:44 PM 81.0 °F 73.9 °F 79% 30.04 in 10.0 miles East 4.6 mph - 0.01 in   Clear
8:53 PM 81.0 °F 75.0 °F 82% 30.04 in 10.0 miles East 4.6 mph - 0.01 in   Clear
9:53 PM 80.1 °F 73.0 °F 79% 30.05 in 10.0 miles ENE 6.9 mph - N/A   Clear
10:53 PM 78.1 °F 73.9 °F 87% 30.05 in 10.0 miles ESE 4.6 mph - N/A   Clear
11:53 PM 78.1 °F 73.0 °F 84% 30.05 in 10.0 miles SE 3.5 mph - N/A   Clear
ADVERTISEMENT
Enter city or zip code to search weather conditions:


  • 490 First Avenue South
  • St. Petersburg, FL 33701
  • 727-893-8111